Location: Delettes
(50.6178°N, 2.2123°E)
Time: 15:08:41
(UTC+00:00)

CENTAUR R/B - Pass Details

Date: 27 February 2020
Orbit: 766 x 1422 km, 63.5° (Epoch: 06 April)

Event Time Altitude Azimuth Distance (km) Brightness Sun altitude
Rises 20:58:49 0° 316° (NW) 4,103 6.8 -33.1°
Reaches altitude 10° 21:01:27 10° 313° (NW) 3,218 6.0 -33.4°
Maximum altitude 21:09:18 65° 234° (SW) 1,470 3.3 -34.5°
Enters shadow 21:09:50 64° 215° (SW) 1,489 3.2 -34.5°
